TimeCDT,TemperatureF,Dew PointF,Humidity,Sea Level PressureIn,VisibilityMPH,Wind Direction,Wind SpeedMPH,Gust SpeedMPH,PrecipitationIn,Events,Conditions,WindDirDegrees,DateUTC
12:54 AM,39.9,32.0,73,30.30,10.0,North,5.8,-,N/A,,Clear,350,2013-10-13 05:54:00
1:54 AM,35.1,30.9,85,30.32,10.0,WSW,3.5,-,N/A,,Clear,240,2013-10-13 06:54:00
2:54 AM,35.1,30.9,85,30.33,10.0,West,4.6,-,N/A,,Clear,270,2013-10-13 07:54:00
3:54 AM,34.0,30.0,85,30.33,10.0,Calm,Calm,-,N/A,,Clear,0,2013-10-13 08:54:00
4:54 AM,34.0,30.0,85,30.35,10.0,Calm,Calm,-,N/A,,Clear,0,2013-10-13 09:54:00
5:54 AM,32.0,28.9,88,30.36,10.0,Calm,Calm,-,N/A,,Clear,0,2013-10-13 10:54:00
6:54 AM,32.0,28.9,88,30.38,10.0,West,3.5,-,N/A,,Clear,280,2013-10-13 11:54:00
7:54 AM,32.0,28.9,88,30.40,10.0,Calm,Calm,-,N/A,,Clear,0,2013-10-13 12:54:00
8:54 AM,39.9,36.0,86,30.42,10.0,Calm,Calm,-,N/A,,Clear,0,2013-10-13 13:54:00
9:54 AM,48.9,39.0,69,30.43,10.0,Calm,Calm,-,N/A,,Clear,0,2013-10-13 14:54:00
10:54 AM,55.9,35.1,45,30.43,10.0,Calm,Calm,-,N/A,,Clear,0,2013-10-13 15:54:00
11:54 AM,62.1,33.1,34,30.41,10.0,SE,6.9,-,N/A,,Clear,130,2013-10-13 16:54:00
12:54 PM,64.9,33.1,31,30.38,10.0,SE,6.9,-,N/A,,Clear,130,2013-10-13 17:54:00
1:54 PM,69.1,30.9,24,30.36,10.0,SE,9.2,-,N/A,,Clear,140,2013-10-13 18:54:00
2:54 PM,70.0,30.9,24,30.34,10.0,SE,10.4,18.4,N/A,,Clear,130,2013-10-13 19:54:00
3:54 PM,71.1,32.0,24,30.31,10.0,SSE,9.2,-,N/A,,Clear,160,2013-10-13 20:54:00
4:54 PM,70.0,32.0,25,30.29,10.0,SE,8.1,-,N/A,,Clear,140,2013-10-13 21:54:00
5:54 PM,68.0,33.1,27,30.29,10.0,SE,8.1,-,N/A,,Clear,130,2013-10-13 22:54:00
6:54 PM,61.0,35.1,38,30.29,10.0,ESE,8.1,-,N/A,,Clear,120,2013-10-13 23:54:00
7:54 PM,55.9,36.0,47,30.31,10.0,ESE,8.1,-,N/A,,Clear,110,2013-10-14 00:54:00
8:54 PM,55.0,36.0,49,30.31,10.0,ESE,8.1,-,N/A,,Clear,110,2013-10-14 01:54:00
9:54 PM,48.0,36.0,63,30.31,10.0,Calm,Calm,-,N/A,,Clear,0,2013-10-14 02:54:00
10:54 PM,54.0,37.0,53,30.30,10.0,SE,6.9,-,N/A,,Clear,130,2013-10-14 03:54:00
11:54 PM,53.1,37.0,55,30.28,10.0,SSE,6.9,-,N/A,,Scattered Clouds,150,2013-10-14 04:54:00